Location: Seattle
(47.6064°N, 122.3308°W)
Time: 13:53:56
(UTC-08:00)

S-56A Canister/Altair - Pass Details

Date: 12 October 2022
Orbit: 638 x 2494 km, 38.9° (Epoch: 02 December)

Event Time Altitude Azimuth Distance (km) Brightness Sun altitude
Rises 20:35:08 0° 191° (S) 5,980 12.1 -22.4°
Reaches altitude 10° 20:40:24 10° 177° (S) 5,101 11.5 -23.2°
Enters shadow 20:48:26 21° 145° (SE) 4,300 10.9 -24.5°
